Theta_e
297 297 297 297 297 297 297 297 298 299 299 299 300 301 301 301 300 300 300 300 302 302 302 302 303 303 303 302 304 306 306 304 302 302 303 305 305 305 305 305 304 303 302 300 301 305 307 306 305 305 305 305 306 309 311 314 315 319 328 330 328 329 329 331 330 326 324 321 318 317 317 317 315 315 316 317 316 312 313 313 312 315 317 316 317 319 320 322
297 296 296 296 297 297 297 297 298 299 299 299 300 300 300 300 300 300 300 301 303 303 303 303 303 303 303 303 305 306 306 304 302 301 303 304 305 305 305 305 305 304 302 300 302 305 307 306 306 305 305 305 307 309 310 312 315 321 329 328 326 329 325 324 326 322 321 320 317 317 317 318 317 316 317 317 315 315 315 311 312 314 313 314 316 318 320 322
297 296 296 296 296 297 297 297 298 299 299 299 299 299 299 300 300 300 300 301 303 303 303 303 303 303 304 304 305 306 306 306 303 301 302 304 305 305 305 305 305 303 301 300 301 304 305 306 306 305 306 306 307 309 309 312 315 318 325 330 328 327 324 322 323 321 320 320 317 317 317 316 316 316 317 316 314 314 313 311 311 311 311 313 314 316 319 322
297 297 296 296 296 297 297 297 298 299 299 299 299 299 299 299 299 300 300 301 303 303 303 303 303 304 304 305 306 305 306 306 303 301 301 304 305 305 306 305 304 302 301 301 301 302 303 305 306 306 307 306 307 308 308 313 315 316 321 328 326 323 325 323 321 321 320 319 317 316 315 314 315 316 315 315 316 312 308 310 311 310 311 312 314 316 319 323
297 297 297 297 297 297 297 297 298 299 299 299 299 299 298 298 298 299 299 300 302 303 303 303 303 303 304 305 306 304 306 307 302 301 302 303 305 305 306 305 302 301 301 301 301 302 303 306 306 307 308 307 306 307 309 312 315 319 319 319 320 320 322 320 319 320 319 318 316 314 314 313 312 313 314 317 318 312 307 309 310 310 312 312 314 317 319 324
297 297 297 297 297 297 297 297 298 298 299 299 299 298 298 298 298 298 299 300 302 303 303 303 302 303 304 305 306 304 305 305 302 302 302 303 305 305 305 305 302 301 301 301 302 302 303 306 307 307 307 306 307 307 309 311 314 323 319 314 317 319 318 317 318 318 318 317 314 312 312 311 310 308 310 312 310 308 308 309 310 311 312 313 314 317 319 323
297 297 297 297 297 297 297 297 298 298 299 299 299 298 298 298 298 298 299 300 301 302 303 303 302 302 303 304 306 305 303 303 302 302 302 303 305 305 305 306 303 301 301 302 303 304 305 306 307 307 306 306 307 306 309 313 315 320 318 313 314 315 314 315 316 316 316 314 311 311 311 310 310 308 307 306 303 305 308 308 309 310 312 314 315 317 319 321
297 297 297 297 297 297 297 298 298 299 299 299 299 299 298 299 299 299 299 301 301 301 302 303 302 302 304 304 305 305 302 302 302 302 303 304 305 305 305 305 303 301 301 302 303 304 306 307 307 308 308 307 306 306 311 317 317 316 315 312 312 312 312 313 314 314 313 311 311 312 309 307 308 308 306 304 303 305 307 307 307 308 310 312 314 316 318 320
297 298 298 298 298 297 298 298 299 299 299 299 300 299 299 300 300 300 301 301 301 301 301 303 303 302 303 304 304 304 302 302 302 302 303 304 305 305 305 305 304 302 302 303 303 305 307 308 308 309 310 308 306 307 313 320 319 315 314 312 311 311 311 313 312 312 311 311 313 311 307 307 309 310 308 304 304 305 306 307 306 306 307 309 311 313 316 319
298 298 298 298 298 297 298 298 299 299 300 300 301 302 302 301 300 300 301 301 301 302 301 302 303 302 303 303 303 304 303 302 302 302 303 304 305 305 305 305 304 302 303 304 302 305 308 309 309 309 309 309 308 308 313 319 317 313 312 311 311 311 311 312 311 311 312 311 313 311 307 309 311 313 310 305 303 305 306 306 306 306 306 307 308 310 313 317
298 298 298 298 298 298 298 298 299 300 300 301 302 303 303 302 301 300 301 301 301 301 302 302 302 302 303 304 303 303 303 302 303 302 303 305 305 306 305 305 305 302 303 304 302 306 309 309 309 309 309 310 310 312 314 315 313 312 313 312 312 311 311 312 311 312 312 311 312 312 310 310 311 311 308 305 305 305 305 306 307 306 306 307 307 308 311 315
298 298 298 298 298 298 298 298 299 300 300 301 302 303 303 303 302 301 300 300 301 301 302 302 302 302 304 305 303 302 302 302 303 302 303 305 306 306 306 306 305 302 301 302 302 305 308 308 309 310 310 312 313 315 314 313 314 314 314 314 313 313 313 312 311 312 313 313 313 315 317 313 308 307 305 305 306 306 306 305 306 306 306 306 307 308 311 314
298 299 298 298 298 298 298 298 299 299 300 300 301 301 302 303 302 301 300 300 301 302 302 302 302 303 304 304 303 302 302 303 303 302 303 305 306 306 306 306 305 303 301 300 302 304 307 308 309 310 311 313 315 316 314 314 315 315 314 315 315 316 316 312 312 313 314 315 313 316 324 316 307 305 305 305 306 306 306 305 305 306 307 307 308 309 310 312
298 299 299 299 299 298 298 298 298 299 299 300 300 300 301 303 303 303 301 300 300 301 302 302 302 303 304 303 302 302 303 303 303 304 304 305 307 306 306 306 306 304 301 300 300 303 306 307 308 310 311 312 315 315 315 315 315 316 316 317 319 321 318 313 312 314 315 315 311 316 324 316 308 306 305 305 306 306 305 305 305 305 306 307 309 309 310 312
298 299 299 299 299 298 298 298 298 298 298 299 299 299 300 301 303 303 303 301 301 301 302 301 302 303 303 302 302 303 303 303 304 305 305 305 306 305 304 304 304 303 301 300 301 303 305 307 308 310 312 313 315 315 316 318 317 317 320 320 319 319 317 313 312 314 316 314 310 317 321 313 308 306 305 304 304 305 305 305 305 304 305 307 309 311 312 313
298 298 298 298 298 299 298 298 298 298 298 298 299 299 299 300 301 303 304 303 302 302 302 302 302 303 303 303 303 303 304 303 303 304 304 304 304 303 303 303 303 303 303 304 304 305 306 307 309 311 312 314 316 316 317 319 318 318 320 320 317 317 316 314 313 311 312 314 312 315 316 313 310 306 305 304 304 304 304 304 304 304 305 306 308 311 313 313
299 299 298 298 298 299 299 298 298 298 298 298 298 299 299 299 300 302 303 303 303 303 302 302 302 303 303 303 302 303 304 303 303 303 304 303 303 304 304 304 305 305 306 307 306 306 307 309 311 311 312 315 316 316 319 320 320 319 318 319 316 316 316 316 316 310 308 313 314 312 312 311 308 305 305 304 303 304 304 304 304 303 304 304 305 308 311 312
300 299 299 298 299 299 299 298 298 298 298 298 298 298 299 299 299 301 303 303 303 303 303 303 303 304 304 303 302 303 304 304 303 304 304 304 304 304 305 306 306 307 307 307 306 307 308 308 310 313 315 318 318 318 321 320 319 319 317 318 316 316 318 316 316 312 308 311 313 312 311 307 304 305 305 304 303 304 303 304 304 303 303 303 303 304 307 310
300 300 299 299 299 299 299 299 299 298 298 298 298 298 299 298 298 300 302 303 302 302 303 302 302 303 303 303 302 303 304 304 304 304 304 304 305 305 305 306 306 306 306 307 307 307 308 309 313 316 316 315 314 314 319 319 317 317 316 316 317 317 317 314 312 310 308 310 309 310 310 306 305 305 305 304 303 303 303 304 304 304 304 303 303 303 305 308
300 300 299 299 299 299 299 299 299 298 298 298 298 298 298 298 301 302 301 301 301 301 302 301 301 302 302 302 303 304 304 304 304 304 305 305 305 305 305 305 306 306 307 308 309 306 307 310 311 311 310 310 309 308 314 317 314 315 315 316 317 316 314 312 310 307 308 311 308 306 308 307 306 304 304 304 303 303 303 303 303 303 304 304 303 303 305 307
300 300 299 299 300 300 299 299 299 299 298 298 298 298 298 299 303 304 301 301 301 300 301 301 301 302 302 303 303 303 303 304 304 304 305 305 305 305 305 306 307 308 306 306 307 307 308 309 308 306 306 306 306 305 311 315 314 315 316 316 315 314 313 311 310 308 308 312 308 305 308 307 304 303 304 304 303 303 303 303 303 303 304 304 303 304 305 306
300 300 300 300 300 300 299 299 299 299 298 298 298 298 300 301 302 302 302 301 300 300 301 301 301 302 302 303 303 303 304 304 304 305 305 305 305 306 305 306 309 308 306 306 308 309 310 309 307 305 303 303 304 306 312 314 314 315 315 315 314 313 312 311 310 308 308 310 308 307 309 306 303 303 303 304 303 303 304 304 304 304 304 304 304 304 304 306
301 301 300 300 300 300 299 299 299 299 298 298 298 299 301 301 300 301 302 302 301 301 301 301 301 302 302 303 303 303 304 303 304 305 306 306 306 305 304 306 308 307 307 308 309 310 310 309 306 303 303 306 308 310 314 314 314 315 314 315 313 312 314 314 310 307 307 309 308 308 309 307 305 304 304 304 304 304 304 304 304 305 305 305 305 304 305 306
301 301 300 300 300 300 299 300 299 299 299 298 298 299 301 301 300 301 301 301 302 301 301 301 301 301 302 302 302 304 304 303 303 304 305 306 306 305 305 305 306 307 305 306 307 309 309 306 302 303 308 311 312 312 313 313 313 313 313 313 313 313 314 313 310 309 309 309 309 311 314 312 309 308 307 306 305 304 304 304 304 304 304 305 305 305 306 307
301 301 301 301 300 300 300 300 299 299 299 298 298 299 300 300 300 301 302 303 303 301 301 301 301 301 301 302 303 303 303 304 303 304 306 306 306 306 305 305 306 307 305 306 308 309 308 304 303 309 312 311 312 312 312 313 313 313 313 312 312 313 312 311 312 314 314 313 313 314 319 319 313 311 311 308 306 306 304 303 303 303 303 304 304 305 306 307
301 301 302 301 300 301 302 300 300 299 299 299 299 299 300 300 300 301 305 307 305 302 302 302 301 301 301 301 303 302 304 305 304 305 306 306 306 306 307 306 306 306 305 306 308 307 306 304 306 312 313 311 312 312 311 312 313 314 312 311 311 312 312 313 315 317 317 316 314 313 319 322 316 314 313 309 308 309 306 304 304 304 304 304 304 305 305 306
302 301 302 302 300 301 302 300 300 300 299 299 299 299 299 300 300 301 305 308 305 302 303 303 301 301 301 302 302 303 305 305 304 305 305 306 306 306 308 308 307 307 304 306 308 306 305 306 308 311 312 313 313 312 312 312 314 314 311 311 312 313 314 315 317 317 315 314 313 312 317 321 320 319 315 310 310 311 310 308 305 306 307 306 306 305 305 306
301 301 302 302 301 300 301 300 300 300 300 299 300 299 299 301 300 302 308 308 304 302 302 302 301 301 302 303 303 303 303 303 304 305 304 305 306 305 306 306 306 307 304 306 310 306 303 306 307 308 310 312 311 310 311 312 313 312 310 311 312 313 314 316 317 316 314 315 315 313 314 319 322 319 313 310 312 314 315 314 308 308 311 311 310 309 307 307
301 302 302 302 301 300 300 300 300 300 300 300 300 300 300 301 300 304 310 307 303 301 301 302 301 300 301 302 303 302 302 302 303 304 304 305 306 305 305 304 304 305 303 305 308 305 303 304 304 304 308 309 308 307 309 314 313 310 309 312 313 313 314 315 315 316 317 318 318 313 312 318 323 320 314 311 314 316 316 315 311 309 313 313 312 312 311 311
301 302 302 302 302 301 300 300 301 300 301 301 301 301 301 302 305 311 310 304 302 301 300 301 300 299 301 302 302 301 301 302 301 302 303 303 304 304 304 304 303 304 304 304 306 305 303 303 303 303 304 303 304 305 307 311 311 309 312 314 314 315 316 317 318 317 320 320 317 313 310 315 322 321 316 314 316 317 315 315 313 310 311 312 312 314 314 314
302 302 302 302 301 301 301 300 300 301 301 300 301 301 300 302 308 310 304 300 302 303 301 302 300 300 302 302 302 301 301 301 300 302 303 302 302 302 303 306 306 306 308 307 307 306 303 305 304 302 301 301 304 307 307 308 310 311 316 315 315 317 316 318 319 317 321 320 316 312 309 312 320 320 317 316 316 315 314 316 316 311 310 313 314 315 315 314
302 302 303 302 301 301 301 300 300 300 300 301 301 301 303 306 305 302 300 300 303 302 299 300 301 301 303 303 302 302 302 300 299 301 302 301 301 300 301 303 304 307 310 309 309 308 306 306 303 302 302 301 306 312 310 311 314 314 316 315 315 316 316 318 317 316 319 317 311 310 310 313 320 320 317 315 314 311 309 310 310 308 310 312 313 313 313 312
303 302 302 303 302 302 302 301 301 300 300 301 299 301 308 310 302 299 301 301 299 298 298 300 301 302 303 304 303 302 303 301 299 300 300 301 302 301 300 298 299 306 310 309 309 310 309 308 304 305 305 302 306 313 313 313 315 315 316 317 316 316 315 315 314 312 314 313 308 308 311 315 319 316 311 308 306 307 306 305 306 306 308 310 311 312 312 311
303 303 302 303 303 303 303 303 303 302 302 300 302 308 310 304 300 300 301 300 297 298 299 299 301 302 302 302 301 301 302 301 300 300 300 301 303 303 302 299 299 304 308 308 308 308 310 309 306 305 304 303 305 308 310 313 315 314 315 317 316 316 316 314 315 315 313 311 310 309 311 317 318 311 306 304 302 303 304 303 304 305 306 308 309 310 311 310
303 303 303 303 303 303 303 303 303 304 302 300 304 312 307 300 299 301 299 298 298 300 299 297 300 305 304 301 301 301 300 300 300 301 300 300 301 301 300 300 299 300 306 310 307 306 307 306 305 304 301 302 304 302 304 312 318 314 311 314 314 313 316 313 311 314 313 313 314 312 312 316 314 307 303 302 301 302 303 303 304 305 304 306 306 306 307 308
303 304 303 303 303 302 303 303 303 304 303 303 307 308 302 298 298 298 297 298 298 298 300 300 302 306 305 303 303 301 300 300 301 305 303 299 300 299 298 299 298 297 303 308 306 306 306 305 305 305 301 301 302 301 301 307 316 316 311 310 309 308 315 316 310 310 312 316 316 311 313 315 312 307 306 305 304 302 302 303 304 305 304 305 305 305 305 305
304 304 303 303 303 303 303 302 303 303 301 304 309 304 298 297 297 297 297 296 296 296 300 303 301 301 302 303 303 301 301 301 302 306 304 300 301 299 297 299 298 296 298 301 305 305 304 305 305 305 304 301 300 301 302 301 308 316 313 309 305 304 311 316 314 313 313 316 315 310 312 315 313 310 307 306 306 304 303 302 302 304 305 304 305 305 305 305
305 305 303 303 304 303 303 302 303 303 301 305 307 301 297 297 296 296 296 295 296 297 300 302 299 298 300 302 302 300 301 303 303 304 303 302 303 299 297 299 298 296 294 297 304 304 304 308 307 304 304 301 300 304 307 303 302 307 307 304 305 310 313 313 313 316 315 313 312 311 311 311 313 313 308 305 307 306 304 303 301 302 303 304 305 305 305 305
305 305 303 303 303 303 304 303 302 302 303 307 306 301 297 297 296 295 295 295 296 298 300 300 297 298 300 300 300 299 300 301 301 302 303 302 302 298 296 297 298 297 295 296 301 301 303 311 309 304 304 303 304 308 309 309 306 305 306 304 307 312 313 311 310 313 317 315 312 312 312 312 315 314 309 307 309 308 306 305 303 301 302 302 303 304 305 304
305 304 303 303 303 304 304 303 302 305 306 304 302 299 297 298 298 296 295 295 295 297 300 299 298 301 301 298 298 298 299 300 299 300 301 299 300 298 295 296 297 298 296 296 299 299 304 313 309 305 307 305 305 302 301 305 307 308 310 309 306 305 304 305 304 305 313 318 316 312 313 318 316 308 305 306 307 306 305 304 302 302 302 301 300 300 301 301
305 304 304 303 304 304 304 305 302 300 302 300 298 298 297 298 298 296 296 296 295 296 297 299 300 300 299 298 297 297 300 302 299 299 300 298 298 297 295 295 296 296 297 300 302 300 304 313 310 306 307 304 301 299 296 298 300 301 303 302 302 303 306 311 306 300 304 311 314 314 316 318 309 300 302 305 303 301 301 301 302 302 301 301 299 299 298 298
306 307 304 303 305 304 305 306 297 294 301 301 298 298 298 298 297 295 295 295 296 296 295 297 299 298 299 299 297 297 301 302 299 299 300 298 297 297 295 295 295 295 298 302 302 297 300 311 310 303 302 299 297 295 293 294 295 298 298 297 299 301 308 320 315 305 302 299 302 309 312 311 304 297 300 302 300 300 301 301 302 301 301 300 299 298 298 298
305 306 304 303 304 303 304 306 299 297 299 297 295 295 297 298 297 296 295 295 297 297 296 298 297 297 298 298 297 298 299 299 298 298 299 298 297 296 295 295 295 295 297 301 301 297 300 310 309 304 305 304 300 294 291 291 294 300 299 296 298 298 302 312 312 309 307 301 302 306 304 305 303 296 297 300 300 301 301 300 300 300 300 299 298 299 298 298
304 304 304 304 304 306 309 310 306 302 299 296 295 295 296 296 296 298 297 296 296 297 298 299 297 296 296 296 298 298 298 299 298 296 298 298 297 296 295 296 296 295 296 299 299 298 300 305 308 308 307 306 305 302 298 295 296 301 300 297 298 297 298 302 302 306 309 302 303 307 304 305 303 297 297 298 298 299 299 299 299 298 299 299 299 299 298 298
305 304 303 303 304 306 308 306 304 305 302 300 299 298 298 297 296 298 297 296 295 294 297 297 295 296 297 295 297 298 296 299 300 298 298 299 299 297 296 296 296 296 296 296 296 299 301 301 305 314 312 309 311 310 306 303 299 298 298 298 297 297 299 301 303 309 308 298 299 308 308 305 302 299 299 298 298 299 298 299 299 298 298 299 299 299 298 299
306 306 305 304 303 303 302 299 299 303 304 304 302 299 299 300 297 296 297 297 296 294 295 295 294 296 298 298 301 302 298 298 300 301 300 301 301 298 296 297 296 296 297 296 294 297 301 298 299 309 314 312 311 305 300 301 300 298 298 298 299 298 297 300 304 310 307 300 302 307 305 301 300 299 299 301 303 301 297 298 299 298 299 299 299 299 299 299
305 306 305 304 304 302 300 299 298 300 302 304 303 300 301 302 298 296 297 297 297 295 294 294 294 297 301 301 303 303 300 299 301 301 300 300 300 297 295 296 296 296 297 296 294 298 307 303 295 297 301 298 298 297 294 296 298 299 299 300 302 300 297 300 304 303 302 304 305 304 302 301 300 300 300 302 304 301 297 298 299 299 299 299 299 299 299 299
305 304 301 303 305 304 302 302 299 297 299 301 302 300 302 304 301 299 299 297 296 296 296 297 296 296 299 299 301 304 303 301 301 300 299 299 299 299 299 297 296 296 296 296 294 298 309 305 293 294 297 294 294 296 295 297 297 296 299 301 302 300 297 300 302 298 299 305 305 303 302 303 302 303 303 301 300 300 299 299 299 299 299 299 299 300 299 299
303 303 301 302 304 302 301 301 299 299 300 301 303 302 304 307 304 300 298 297 297 295 296 299 298 296 297 296 301 308 306 302 302 300 300 300 299 301 302 299 297 296 295 297 294 294 304 305 294 294 298 296 296 296 295 297 297 297 300 300 299 300 298 298 299 298 297 300 301 301 301 302 303 303 302 299 298 299 299 299 299 300 300 300 300 300 299 299
303 304 302 303 302 299 300 299 299 304 304 301 304 303 303 308 305 298 296 298 299 298 297 300 299 296 296 297 301 305 301 299 302 301 299 300 299 300 300 299 299 298 297 299 295 294 302 303 292 294 301 299 298 297 297 297 298 300 302 299 296 298 298 296 298 299 298 298 299 299 299 303 303 299 297 298 298 299 299 300 300 301 301 300 300 300 299 299
305 304 302 305 304 300 300 298 299 307 308 304 305 303 302 306 303 298 298 296 297 300 299 298 298 296 296 299 301 301 296 295 298 297 296 298 298 298 297 295 297 301 302 299 297 299 304 301 292 296 305 304 299 299 301 298 296 300 304 303 300 299 301 300 300 300 300 302 301 299 301 308 304 297 297 299 299 299 300 301 301 301 301 300 299 299 299 299
304 303 302 305 305 300 299 298 298 305 306 302 303 302 302 302 298 297 301 298 294 297 297 295 296 298 301 302 300 297 295 294 295 294 294 295 295 295 296 295 294 298 301 299 299 299 301 303 300 302 309 308 300 299 302 301 301 305 307 305 302 300 301 300 299 299 300 301 304 306 309 308 300 297 300 300 299 300 301 300 300 300 300 300 299 299 299 298
Wind_Speed
4 5 5 6 6 6 6 5 7 10 12 11 9 10 12 11 9 9 9 8 7 7 7 7 6 6 7 4 5 3 3 7 11 15 17 17 14 11 11 12 12 12 8 4 0 4 6 6 7 9 11 13 13 14 14 11 9 5 2 4 4 5 5 6 6 7 11 10 11 11 14 21 11 13 20 17 19 24 25 23 22 23 23 21 19 19 18 18
4 5 5 6 5 5 5 4 5 9 11 10 10 11 12 12 10 9 8 7 7 6 6 6 6 6 7 6 7 4 2 5 11 15 18 15 9 10 11 10 12 12 8 3 1 3 5 5 6 8 10 11 10 12 11 9 8 3 2 4 4 6 2 3 11 14 16 15 14 15 17 21 15 13 16 12 13 19 22 19 20 23 21 20 19 18 17 17
5 5 5 5 5 5 4 2 4 9 10 9 10 11 11 12 11 9 8 6 6 5 6 6 5 5 6 5 4 3 3 3 12 17 17 12 9 10 10 11 11 10 6 2 1 3 4 5 6 8 10 9 8 11 10 8 7 1 3 4 4 6 2 3 15 19 24 27 22 17 16 19 16 15 17 16 15 14 13 9 14 18 17 18 18 17 17 17
6 6 6 6 5 4 4 2 4 8 10 9 9 10 10 12 11 10 8 5 4 3 5 6 5 5 5 4 2 2 6 3 11 17 15 10 9 9 11 12 10 7 4 1 1 3 5 7 7 8 8 6 6 9 9 9 7 1 2 3 4 6 5 5 18 25 28 32 27 21 20 19 15 18 21 21 15 8 6 7 12 15 16 17 17 16 16 17
6 6 6 6 5 4 4 2 2 6 9 10 10 10 10 11 11 11 9 5 2 1 2 4 5 5 4 5 5 5 3 2 9 15 14 10 8 9 11 11 8 5 2 0 1 3 5 7 7 7 6 3 6 7 8 11 7 4 4 3 1 7 6 6 22 29 28 31 29 22 17 16 18 19 16 14 11 6 7 12 16 16 16 16 16 16 16 18
6 6 6 6 5 4 3 2 1 3 7 10 10 10 10 11 12 13 11 6 3 3 2 3 5 5 4 4 4 6 2 1 9 15 14 9 7 9 10 10 8 5 2 1 3 4 5 8 7 6 3 2 5 5 9 12 5 4 4 10 8 12 13 12 23 26 27 29 23 17 17 23 24 18 15 17 13 11 14 16 17 16 16 16 14 16 16 17
7 7 7 6 5 3 2 1 1 2 6 9 10 11 12 13 13 13 10 7 4 5 4 3 4 5 4 4 3 4 6 4 11 16 13 8 6 9 9 10 8 4 1 2 4 4 5 7 6 4 4 3 4 4 9 8 9 9 4 9 13 19 21 19 24 23 26 27 21 24 23 20 19 14 16 20 13 12 16 16 16 16 16 15 13 14 15 16
8 8 7 7 5 2 1 2 3 3 6 9 11 12 14 15 13 10 6 6 5 5 5 4 3 4 3 4 2 3 8 10 13 16 13 7 5 7 8 9 8 4 1 3 4 4 6 6 5 4 3 3 2 4 11 11 11 8 4 8 13 21 24 25 29 27 29 29 28 31 23 17 20 19 16 14 11 12 14 16 16 16 16 16 15 14 15 15
8 8 7 6 4 1 2 5 5 5 6 9 11 14 15 15 12 6 4 5 5 4 5 4 1 4 4 4 3 3 8 13 14 15 13 7 4 5 7 9 7 3 1 2 3 4 5 6 6 4 1 2 2 5 12 8 5 6 10 14 17 20 23 28 29 28 29 27 30 29 19 17 20 18 14 8 10 11 13 16 16 16 16 16 15 15 15 15
8 8 7 6 4 1 4 7 7 7 8 10 12 14 14 14 11 5 3 5 6 3 4 4 3 4 4 3 4 2 7 14 14 15 12 6 4 4 5 8 7 3 2 1 3 4 5 6 5 4 4 3 2 3 7 7 11 18 23 23 23 22 20 25 26 26 26 20 27 26 12 11 11 7 6 5 10 11 12 15 15 16 15 15 15 14 14 14
8 8 7 7 5 1 5 9 9 9 10 13 14 15 14 13 11 5 3 5 6 4 2 3 4 4 3 3 5 3 10 16 15 15 10 4 3 4 5 7 7 3 1 2 3 6 5 4 4 3 3 1 3 8 11 20 26 29 32 24 21 24 20 20 19 19 19 13 23 30 15 12 10 5 4 7 9 9 13 13 13 13 12 13 13 13 13 12
9 9 8 7 6 2 5 11 11 10 12 14 16 17 16 14 11 7 6 7 6 3 1 2 3 3 2 3 6 7 13 17 15 14 8 4 2 3 4 6 6 5 1 3 4 7 5 4 3 1 2 5 8 11 16 30 31 27 31 19 10 16 13 11 11 9 12 11 16 21 13 9 8 5 4 7 9 9 13 12 11 11 10 10 11 12 12 12
10 10 9 8 6 2 5 11 13 11 10 13 15 18 19 17 13 8 5 5 6 4 1 2 2 1 1 2 7 10 13 14 12 10 6 3 0 1 2 4 5 6 3 2 4 7 6 4 2 1 4 5 6 12 20 27 25 18 19 12 6 9 5 7 7 6 11 13 5 7 5 1 4 3 3 5 9 10 10 9 9 9 9 9 10 12 11 12
10 10 10 10 7 3 3 10 14 12 9 9 11 15 19 21 17 10 4 2 3 4 4 4 4 0 3 4 9 11 10 8 6 5 4 3 3 1 2 3 4 6 5 1 6 7 6 5 3 1 2 4 13 23 20 13 12 10 8 6 4 5 1 6 3 5 7 6 3 7 4 2 0 1 2 5 6 7 7 7 8 7 8 8 8 10 9 11
11 10 10 10 8 4 2 8 13 14 12 9 6 8 12 18 21 15 6 3 4 5 5 3 2 2 5 6 9 9 7 6 5 5 4 2 3 2 3 3 3 3 2 3 7 7 6 5 2 2 3 13 22 20 9 3 4 4 5 3 3 4 2 3 3 4 3 2 6 7 5 1 2 3 4 6 4 4 5 6 7 7 7 6 7 9 9 10
13 12 11 10 8 6 3 7 12 15 14 12 9 4 4 8 18 21 12 6 7 8 7 4 6 4 6 7 8 9 10 10 9 8 6 4 0 2 3 1 2 2 4 7 7 7 7 4 2 3 6 14 14 9 7 5 3 3 3 4 2 5 5 2 4 5 3 3 8 7 6 2 2 4 5 5 4 5 5 6 7 6 6 6 7 9 9 10
13 13 12 10 9 7 5 7 12 15 15 15 13 7 3 1 9 19 19 10 8 11 12 8 4 2 6 9 10 12 14 12 11 9 7 6 4 2 3 4 5 6 7 8 7 7 7 3 2 3 5 5 3 7 9 5 4 1 3 4 3 5 6 4 4 6 8 6 6 6 6 4 4 6 6 5 5 5 5 7 7 6 6 5 6 7 8 9
16 15 13 12 10 7 5 7 11 15 16 16 14 12 8 4 3 10 20 17 11 10 11 12 6 2 4 11 13 11 12 12 11 11 9 7 4 3 3 5 5 5 7 8 6 6 5 3 3 3 3 4 2 5 8 7 9 7 5 6 4 4 6 5 3 2 7 8 6 6 7 5 4 5 6 5 4 5 5 7 7 5 6 6 5 5 6 8
18 18 17 16 12 6 5 7 10 14 15 16 15 14 11 6 2 6 20 24 20 10 4 10 10 3 1 11 13 9 8 11 12 12 10 7 4 3 3 4 4 4 4 4 4 4 3 4 6 5 3 4 3 1 5 7 9 10 9 9 8 6 5 4 3 3 8 9 6 5 6 6 5 4 4 5 4 3 5 7 7 6 6 6 5 5 6 7
18 20 20 19 12 3 4 6 9 12 14 15 16 13 10 4 1 4 14 22 21 14 8 9 9 5 2 9 14 10 6 10 13 13 10 7 4 3 4 3 2 4 2 3 3 4 7 6 5 4 1 1 2 3 2 8 11 13 11 9 9 8 5 3 3 4 7 8 5 3 5 6 5 3 3 5 4 3 5 8 7 7 8 8 7 6 7 7
18 20 21 20 11 2 1 4 7 11 12 13 15 12 8 5 2 3 9 14 12 12 14 14 12 9 8 10 14 12 8 10 14 15 12 8 5 2 4 4 3 4 3 2 4 6 10 7 2 1 3 4 3 3 2 11 13 11 10 9 7 6 5 4 4 2 3 6 2 1 6 5 3 2 3 5 4 3 5 8 9 8 9 9 9 8 8 8
18 20 21 19 10 3 2 4 7 9 10 12 15 12 6 5 4 5 8 8 6 7 10 14 15 15 12 11 12 14 13 12 13 17 14 10 8 5 4 6 4 2 4 3 6 6 7 3 3 5 6 4 1 0 6 12 12 9 8 8 6 5 6 5 4 3 4 5 3 2 6 4 2 1 3 5 6 6 7 9 10 10 10 11 11 9 9 10
18 20 19 17 9 4 3 4 6 7 9 11 14 12 6 5 6 6 7 6 5 6 8 11 16 18 16 12 10 12 14 12 12 17 18 12 10 10 7 7 5 3 5 5 6 6 4 1 6 9 5 4 6 6 10 11 8 8 7 8 7 5 5 4 2 3 6 5 5 5 5 2 2 0 2 6 8 8 7 8 9 10 11 12 12 11 11 11
19 20 18 15 8 4 4 4 5 6 8 10 12 11 7 7 9 8 7 5 3 4 8 10 13 17 17 13 9 8 10 12 13 16 17 12 9 9 6 6 7 6 5 7 9 8 5 3 9 7 2 9 11 9 11 9 5 4 5 7 8 5 5 6 5 5 8 7 4 7 5 1 1 1 3 4 7 9 8 8 9 10 11 11 13 14 13 13
20 20 17 14 7 4 5 5 5 6 8 9 11 9 8 9 8 8 5 4 2 5 9 9 9 13 17 14 8 4 5 11 16 17 15 11 7 5 4 5 6 3 1 7 10 8 3 7 7 3 6 11 12 7 5 7 6 3 1 4 10 10 10 10 8 6 6 2 2 3 3 1 2 3 5 3 4 8 8 9 11 12 12 13 15 16 15 16
20 20 17 13 6 3 4 5 5 5 7 8 9 8 9 9 7 7 4 4 3 4 8 9 7 10 15 15 9 3 3 7 13 16 14 10 7 5 3 4 4 2 1 4 7 3 2 8 5 7 9 10 11 6 2 3 8 3 1 4 10 13 11 9 8 6 3 3 2 2 3 1 2 4 6 3 4 7 7 9 14 16 16 17 19 18 18 18
20 20 17 13 7 3 3 4 5 5 6 7 7 8 9 8 7 7 3 5 4 2 5 8 7 9 12 14 11 3 1 5 8 16 17 9 6 8 6 4 3 2 1 3 4 1 3 7 8 8 8 8 8 5 1 2 7 4 3 8 11 13 11 8 8 5 3 4 2 3 3 2 1 4 4 5 5 6 7 9 14 18 20 21 22 22 21 20
19 20 18 13 7 4 4 4 4 5 5 6 6 7 7 6 7 6 4 4 3 2 2 4 5 11 13 13 16 10 4 5 4 11 17 11 7 9 8 3 3 3 5 5 3 2 2 5 7 6 6 6 4 2 1 4 6 2 5 9 9 9 9 7 8 5 3 5 1 3 3 3 2 4 2 2 4 7 9 9 11 18 23 24 25 24 22 21
18 19 18 14 7 4 5 6 6 6 5 5 6 6 5 4 7 3 5 2 2 3 3 4 4 9 12 10 14 14 12 11 5 6 15 15 12 13 9 5 9 9 10 9 5 1 1 2 2 4 4 3 1 3 2 3 4 5 8 9 8 6 7 6 6 4 3 4 3 3 2 3 3 4 1 2 3 7 8 8 11 19 24 25 25 23 20 20
17 18 17 14 8 5 5 7 7 7 6 6 7 7 6 4 3 4 6 0 0 3 5 5 3 8 12 7 7 11 10 10 8 9 14 16 15 16 12 10 14 10 7 10 7 1 1 1 1 4 3 2 2 2 1 2 7 13 10 8 7 6 5 4 3 4 5 2 4 4 2 3 1 4 3 3 4 5 5 4 9 16 19 21 22 21 20 20
15 16 16 15 10 6 5 6 7 7 7 6 6 6 5 2 4 6 3 1 1 4 5 4 3 6 8 3 4 7 6 6 9 9 10 9 11 13 9 6 8 6 4 7 5 2 4 4 2 3 4 2 1 4 5 4 10 11 6 5 6 4 4 3 4 4 4 2 5 5 3 3 2 3 4 5 6 4 4 5 7 11 16 17 17 18 19 20
13 14 14 14 11 8 6 5 4 5 3 3 3 4 3 3 4 3 1 4 2 2 3 3 3 4 5 3 4 5 3 4 7 6 4 4 5 7 5 2 1 2 4 4 2 4 6 4 4 5 5 6 3 5 6 5 5 6 5 6 6 4 3 2 1 1 1 3 4 4 2 1 1 5 4 5 8 6 3 3 4 6 10 13 15 16 17 17
11 12 13 12 10 9 8 5 4 4 2 2 4 3 4 6 2 1 3 3 1 2 2 2 4 4 4 4 4 4 3 3 4 4 2 2 4 2 2 3 2 1 3 2 1 3 3 1 7 6 4 8 4 6 5 2 2 4 6 4 4 4 3 2 2 0 1 2 3 3 1 1 3 4 3 4 5 2 3 4 4 5 4 6 10 13 14 15
9 11 12 12 8 7 8 6 4 5 4 6 6 4 7 5 1 2 3 2 2 3 2 2 5 5 3 3 2 3 3 3 2 3 3 2 5 4 3 7 7 3 2 3 2 3 3 0 5 4 3 6 5 4 3 5 5 3 4 4 4 4 4 4 3 2 3 1 2 3 1 2 2 2 3 3 2 3 5 4 4 5 6 4 3 4 7 9
8 10 12 14 11 6 7 7 2 4 6 9 8 7 6 2 3 1 1 4 2 3 4 3 3 4 4 3 3 3 2 2 1 3 4 3 3 3 3 5 6 4 2 3 2 1 4 0 4 2 2 3 4 1 1 5 4 1 1 4 1 2 4 3 3 5 5 2 1 1 2 3 3 2 3 2 2 4 5 4 3 5 5 5 4 3 1 3
6 9 11 15 15 9 6 10 6 5 7 8 9 6 2 2 2 2 1 2 1 2 4 4 3 4 4 4 4 5 3 3 3 3 4 3 2 3 2 3 3 4 3 3 2 0 3 1 4 3 2 4 5 2 2 3 2 1 3 1 2 3 6 5 2 1 3 4 1 1 2 4 2 1 4 5 3 3 5 4 4 5 5 5 5 4 3 1
4 8 11 13 16 14 7 7 9 7 8 9 9 3 2 2 3 3 1 2 0 1 2 3 2 2 2 2 4 6 4 3 4 4 2 2 3 4 3 3 2 3 2 1 2 1 2 3 2 3 4 4 4 3 5 7 3 2 2 3 2 3 4 5 3 3 4 3 2 1 1 3 1 1 4 5 2 2 5 5 5 6 6 5 5 4 4 3
2 5 11 13 13 14 11 6 4 6 10 11 7 3 2 1 3 3 2 1 1 0 3 2 1 1 1 1 3 5 4 3 3 3 2 1 2 2 3 3 2 3 6 3 2 1 2 4 2 2 1 3 4 3 4 6 5 4 4 3 2 3 1 2 3 2 2 2 2 2 2 2 3 3 3 2 3 3 3 5 6 7 8 8 6 4 3 2
1 1 8 14 11 10 13 8 2 5 9 8 3 2 2 2 3 3 1 0 2 1 3 0 1 2 2 1 1 4 3 3 2 2 2 1 2 2 3 2 3 7 11 6 2 1 1 4 1 3 1 2 5 4 1 4 5 3 3 2 2 3 3 2 2 3 3 3 2 1 3 2 4 4 5 6 7 5 1 2 3 5 7 7 5 3 1 1
1 1 6 14 11 7 7 7 8 10 8 4 3 2 1 1 2 2 1 1 1 1 1 1 1 2 2 1 0 2 2 3 2 2 2 1 2 2 2 2 2 8 11 6 2 2 2 4 3 2 4 2 3 3 1 0 3 3 3 3 2 2 2 2 2 2 4 4 3 2 1 5 5 3 5 6 6 5 5 3 3 3 4 4 2 2 0 2
1 1 6 12 10 6 4 7 11 10 5 2 3 1 0 1 1 1 2 2 2 0 1 1 2 2 0 1 2 1 2 3 3 2 2 2 2 1 2 3 3 5 6 4 3 2 2 3 3 1 4 3 0 1 1 2 2 2 1 1 2 2 3 4 2 1 2 3 4 4 2 6 5 2 3 4 4 5 6 6 5 3 2 0 2 2 1 1
4 1 7 9 8 7 6 7 7 5 4 3 2 2 1 1 1 2 2 2 2 1 0 1 1 1 2 1 1 1 2 3 3 2 2 1 1 1 2 7 6 3 1 2 1 2 1 4 4 2 1 1 2 1 2 2 2 3 1 0 2 2 3 5 3 3 1 2 2 4 2 4 5 3 2 3 4 4 5 5 4 4 3 2 2 2 1 1
6 4 8 6 4 6 7 6 5 5 3 2 1 2 2 1 1 1 2 2 2 1 1 1 0 1 1 1 0 1 2 2 3 2 1 1 1 2 3 8 6 1 1 1 1 2 2 3 4 2 4 4 4 3 0 0 2 2 1 1 2 1 2 4 5 3 3 2 1 3 1 4 4 4 3 2 2 3 4 4 4 5 5 3 1 1 0 1
7 7 11 9 1 1 3 3 2 2 1 1 2 2 1 0 1 1 1 1 1 0 1 1 1 1 1 0 1 1 1 2 2 2 0 1 1 2 4 8 5 2 2 1 1 2 2 2 4 3 3 4 5 5 3 2 1 1 2 1 1 1 3 3 2 3 3 3 4 4 2 6 4 4 4 2 2 3 5 5 4 5 5 3 1 2 0 1
4 5 10 12 6 5 6 6 7 6 3 3 3 1 1 1 1 1 1 1 0 1 1 0 1 1 1 1 2 2 1 3 2 1 1 1 2 2 3 7 6 4 3 2 3 3 2 2 4 5 4 2 1 2 3 3 2 0 1 2 0 2 3 2 2 4 1 2 3 4 4 5 4 3 3 2 2 4 6 6 6 6 5 3 3 2 2 1
2 1 3 8 9 11 11 9 11 9 5 4 3 1 2 2 1 0 1 0 0 0 1 1 1 1 1 2 3 4 5 3 2 2 1 1 3 2 3 5 5 5 3 3 5 3 4 3 3 6 6 5 5 5 4 1 2 2 1 1 1 0 1 3 3 1 3 4 2 4 5 2 2 2 3 5 3 4 6 5 7 7 5 4 3 1 2 2
2 0 1 2 5 10 11 8 9 8 5 6 3 1 3 2 1 0 0 1 1 1 1 2 2 1 1 1 2 2 3 4 4 3 1 2 3 2 3 2 4 6 3 1 3 3 5 4 3 4 2 1 3 3 3 2 2 4 4 4 4 2 2 4 2 3 4 6 1 6 5 4 4 6 6 6 4 5 6 5 7 7 6 4 3 2 2 1
1 1 1 1 1 3 4 3 8 9 6 5 3 1 3 2 1 1 1 1 1 1 1 2 4 2 1 1 3 2 1 3 4 2 0 1 2 3 3 2 3 6 2 1 2 3 6 3 1 2 3 4 3 3 4 1 0 2 3 4 4 3 3 3 3 4 5 5 4 4 6 5 6 6 7 7 4 4 4 5 6 6 5 5 3 2 2 3
4 5 3 3 2 3 4 6 11 12 6 3 3 1 3 4 3 2 1 1 1 1 1 1 3 4 2 2 2 3 2 2 2 1 2 0 1 1 2 1 2 5 4 2 2 3 5 2 1 2 3 5 5 4 3 3 2 3 3 3 1 2 3 1 1 1 3 2 3 3 4 5 7 7 8 6 4 4 4 5 6 5 4 4 2 3 3 3
4 4 4 6 7 6 6 7 9 8 3 2 3 1 3 5 4 2 0 2 1 1 1 2 2 2 1 1 4 3 2 2 1 1 3 2 1 0 1 1 2 4 6 3 2 3 3 2 2 3 3 4 5 3 4 5 3 3 5 3 2 1 1 0 0 1 2 1 2 4 2 6 5 6 7 5 3 5 6 6 6 5 4 4 4 5 4 4
4 4 7 9 6 3 3 2 3 4 2 1 2 3 3 4 6 5 2 2 2 0 1 4 5 1 3 4 5 3 1 1 3 4 4 4 3 1 1 1 3 2 4 2 1 3 3 3 1 4 4 3 3 2 4 4 4 1 7 6 3 3 2 3 3 3 4 4 3 4 1 5 4 3 3 3 4 6 7 7 5 4 4 5 6 6 6 7
6 7 8 8 3 1 1 1 3 2 2 1 3 4 2 5 9 8 4 2 2 3 2 4 5 2 3 5 3 2 2 4 6 6 6 7 6 6 4 3 3 1 0 1 2 2 3 4 3 4 2 3 2 1 2 3 4 3 6 6 8 6 4 3 3 4 6 6 6 4 5 5 2 1 1 3 4 5 6 5 5 6 7 8 9 8 7 7
Wind_Direction
358 352 347 346 349 353 359 20 29 24 18 14 18 19 19 17 9 8 9 15 29 48 67 73 61 42 40 74 130 115 48 38 11 15 30 28 14 357 1 357 349 352 352 353 199 178 175 164 163 162 160 158 158 166 160 156 160 153 131 133 161 178 185 181 167 144 134 142 157 156 125 118 120 110 105 98 95 92 94 94 96 107 112 112 117 124 127 128
348 343 340 339 343 347 356 22 35 28 21 21 29 26 25 25 20 15 14 18 23 41 65 68 59 52 54 86 127 125 74 28 14 23 26 23 20 1 356 354 350 348 349 5 186 184 173 157 145 148 154 152 150 161 163 163 162 146 110 139 191 183 192 160 145 135 134 141 134 133 126 119 127 130 119 104 91 96 96 91 100 106 107 114 121 127 131 132
343 343 339 339 343 344 352 25 47 32 24 28 33 28 26 26 25 17 12 17 20 42 60 57 55 57 61 81 123 149 205 318 7 17 14 17 20 357 351 351 352 352 355 19 169 167 156 145 137 135 147 148 144 159 163 162 166 180 105 139 226 187 59 69 143 142 141 141 128 126 121 106 118 126 118 115 101 94 95 93 104 104 109 120 124 132 137 137
344 344 342 344 346 343 348 17 53 34 28 33 32 27 21 19 21 13 5 5 15 46 54 45 38 43 48 39 29 269 230 271 6 6 359 9 8 351 350 349 353 357 356 36 158 173 155 144 141 134 141 143 139 156 165 169 167 66 76 166 214 147 57 52 137 138 137 137 127 123 112 95 110 122 123 122 105 84 87 106 117 114 118 125 131 139 143 143
343 342 339 340 341 339 343 360 55 35 30 36 32 24 17 11 8 1 355 342 329 11 27 26 23 29 24 16 16 343 258 241 357 356 356 6 355 346 352 353 357 344 329 247 249 172 156 149 145 137 132 125 135 146 169 174 152 67 34 20 87 122 79 79 127 132 134 131 122 116 108 109 114 106 115 123 109 124 127 120 124 121 125 131 138 144 149 147
340 341 337 335 339 337 338 357 58 33 29 31 25 19 11 360 350 344 341 330 287 255 291 347 12 26 19 12 9 360 44 151 349 355 359 3 345 344 348 350 356 335 308 239 207 153 154 155 142 133 108 95 139 143 170 182 151 86 25 26 53 108 104 104 118 126 132 124 115 114 116 120 110 86 88 98 94 125 134 128 126 124 130 134 138 146 151 150
343 346 341 333 338 342 343 36 101 44 25 19 12 8 1 349 339 333 331 329 296 262 263 292 358 26 26 11 343 357 42 29 358 358 358 1 341 340 345 345 351 339 299 196 170 134 143 144 128 103 64 94 152 160 157 151 105 103 62 43 67 92 100 113 116 121 124 113 109 118 117 111 105 98 95 89 88 123 133 129 127 125 130 132 135 142 145 147
346 348 343 332 335 350 54 132 115 65 28 11 3 356 351 344 339 335 335 335 310 266 249 258 345 20 18 12 29 57 31 7 356 357 355 358 333 333 348 348 348 342 300 166 144 125 127 106 90 87 66 123 166 181 141 108 83 91 96 85 79 85 96 110 112 112 110 106 113 111 98 90 102 109 95 82 101 123 132 131 126 125 128 132 135 139 141 146
346 345 341 331 333 357 138 139 116 78 41 20 10 0 356 353 355 1 16 3 338 273 248 240 307 346 337 1 52 77 20 356 346 351 353 346 320 327 347 356 354 338 317 158 142 122 117 95 89 90 105 115 71 160 139 112 73 97 110 105 93 89 97 104 103 104 105 109 116 103 83 95 106 102 80 77 116 122 135 134 127 126 130 135 139 143 148 151
349 351 347 337 337 36 150 142 119 88 62 43 32 22 13 7 10 29 59 35 18 344 276 239 254 306 307 344 44 70 350 348 342 346 349 332 311 327 347 7 5 334 298 214 165 124 111 111 93 83 99 78 50 138 124 110 114 112 105 94 92 91 91 100 100 104 104 104 112 106 83 86 99 105 85 108 123 125 138 134 133 132 134 142 144 150 155 158
1 360 356 345 345 49 160 149 127 102 83 64 51 44 33 21 19 20 1 359 358 352 311 243 249 280 284 335 46 45 338 343 341 343 339 306 318 341 2 15 11 2 273 244 173 141 128 120 102 90 94 42 90 93 97 117 120 115 103 84 83 89 84 89 94 104 102 93 107 107 88 54 61 78 94 136 133 136 140 135 141 138 140 149 151 157 159 164
9 3 360 352 353 14 165 157 141 118 95 77 64 52 42 33 26 13 352 352 353 348 265 230 238 262 277 343 34 17 344 341 339 339 321 270 327 353 17 18 6 11 311 242 174 160 166 144 119 70 112 135 110 92 114 124 120 114 104 92 80 84 73 58 67 94 105 120 113 99 89 37 31 62 86 131 135 142 139 134 146 147 152 158 160 165 166 174
10 9 7 358 357 9 168 166 158 140 111 89 73 55 46 38 28 16 14 26 30 42 6 256 252 347 36 20 25 8 348 344 338 332 302 250 252 332 16 9 350 356 340 246 179 179 186 164 143 60 119 135 110 117 133 126 115 107 99 103 104 83 42 12 55 103 112 138 123 47 105 38 10 69 102 131 132 138 139 137 150 158 165 169 174 175 175 179
5 13 14 4 358 360 177 176 172 164 147 114 84 64 51 42 35 25 27 42 18 18 343 294 260 337 72 41 19 8 354 350 338 323 294 243 213 246 296 290 309 329 324 255 175 178 181 174 165 64 95 126 123 126 129 115 107 109 91 90 96 103 326 344 73 123 109 144 343 17 129 164 18 136 138 148 139 133 137 148 158 170 175 178 186 183 182 180
354 357 4 1 352 344 205 189 185 177 171 166 131 82 56 43 38 32 39 61 31 16 347 338 188 141 73 36 11 9 6 5 358 355 357 308 227 273 301 266 279 318 329 143 156 164 166 167 151 14 96 129 131 127 116 66 81 101 112 102 39 104 146 350 102 114 118 148 11 51 125 142 152 170 162 157 166 158 154 161 161 170 179 185 193 189 188 183
349 344 344 345 341 329 262 204 195 186 184 190 189 147 69 43 37 34 43 61 53 45 28 63 132 112 59 25 5 17 18 17 17 14 16 23 344 303 341 15 98 95 113 121 131 144 148 140 76 53 115 133 138 128 102 94 66 11 97 130 89 116 135 128 98 45 79 115 16 46 132 130 132 165 169 154 161 173 170 168 162 166 173 171 181 190 192 189
356 353 345 338 334 319 273 216 201 196 194 195 200 208 226 350 32 33 39 53 66 60 53 66 141 131 47 17 1 8 14 18 21 21 20 22 22 360 41 78 94 105 113 110 112 125 129 105 71 98 103 112 139 131 122 129 150 85 69 110 105 119 131 135 114 37 42 74 29 48 109 110 106 136 162 164 155 170 184 178 173 172 173 165 168 186 193 194
358 0 356 344 333 314 268 220 203 200 198 195 201 214 230 261 314 27 36 47 62 67 57 45 43 137 37 5 356 353 7 19 16 15 13 11 18 20 57 74 81 110 117 104 101 115 111 57 74 112 68 39 39 135 147 161 155 148 127 125 115 96 114 121 133 63 48 64 71 77 96 109 106 124 164 182 161 177 199 186 180 176 173 174 176 187 190 188
354 356 359 352 339 309 251 221 201 199 199 197 201 212 228 259 280 35 38 45 54 62 51 28 37 105 285 349 359 354 10 28 19 13 13 17 28 36 60 58 68 102 116 98 76 65 78 62 72 98 84 50 18 43 148 143 129 130 123 123 127 107 101 108 95 114 101 78 55 71 109 134 130 126 171 185 173 188 206 195 192 192 187 184 193 209 200 188
351 353 356 356 351 319 235 213 193 196 198 197 200 205 214 221 107 48 46 52 60 68 65 45 45 57 355 357 13 18 26 34 27 22 23 28 40 55 43 25 63 72 68 121 84 51 79 79 62 86 97 336 322 313 126 114 109 116 114 109 120 114 102 110 114 127 112 84 29 43 104 129 133 126 192 193 189 203 199 196 199 202 199 197 202 214 216 206
353 353 354 358 3 24 192 184 177 190 193 194 196 194 199 196 147 98 74 64 67 69 61 54 48 39 24 14 21 28 35 37 34 33 29 23 31 31 19 24 70 54 9 108 94 73 81 78 19 347 249 256 271 283 114 112 111 111 115 115 107 108 107 94 113 142 77 81 60 73 104 102 101 122 198 200 211 236 214 208 212 212 206 206 211 219 229 223
355 354 355 1 13 65 121 154 163 181 187 189 191 189 200 197 155 118 102 86 76 68 55 46 42 36 28 24 26 28 34 36 29 31 31 29 35 34 32 46 67 48 347 37 91 78 63 56 312 304 275 234 188 84 101 108 114 110 116 118 105 117 116 81 68 44 32 90 134 158 112 89 37 130 189 211 228 242 235 226 223 221 218 216 217 221 229 229
358 357 358 3 20 81 104 137 159 175 179 186 190 193 201 182 159 133 113 106 92 65 49 37 31 28 25 23 23 26 36 34 11 16 26 34 44 48 59 59 58 48 14 43 99 100 86 4 307 308 288 140 109 98 103 101 104 117 127 123 130 153 127 101 94 54 43 81 131 130 104 54 346 47 210 217 226 242 248 239 234 234 233 229 227 230 235 236
1 1 1 3 23 83 93 108 143 165 178 188 191 198 200 168 155 147 124 109 107 48 36 29 19 21 20 12 11 20 36 37 16 11 20 32 47 49 58 65 62 52 43 74 87 92 105 312 314 318 38 101 102 98 107 110 88 93 121 128 142 148 101 106 131 97 61 55 115 121 90 360 253 249 261 228 223 242 251 242 235 234 236 236 234 233 237 240
5 5 5 5 21 83 89 97 120 146 168 182 191 203 195 169 159 157 138 85 57 5 11 13 11 16 13 6 2 1 29 36 25 15 18 30 47 61 53 53 63 47 31 82 76 77 61 328 329 39 74 87 100 97 101 123 111 67 26 135 139 124 109 119 127 109 79 54 223 130 89 256 228 232 250 230 212 237 245 239 234 233 234 236 235 233 235 239
7 9 10 10 19 69 93 103 108 136 160 171 189 199 189 183 177 172 154 57 28 337 354 357 356 7 8 6 2 346 20 24 25 26 29 36 52 87 70 26 61 98 194 89 76 88 354 340 9 84 88 89 96 88 3 114 120 118 317 126 125 117 119 131 118 98 107 149 211 104 119 201 284 253 240 209 217 244 244 239 239 238 239 239 239 238 237 239
9 11 13 14 19 56 106 117 106 131 154 161 178 186 186 191 184 181 162 41 14 328 2 355 356 10 12 18 25 60 286 330 16 34 34 42 63 91 85 19 45 52 254 105 75 359 336 355 25 65 80 93 103 103 344 103 115 141 172 127 122 120 125 125 99 89 117 117 59 31 98 118 272 257 239 186 210 260 262 251 247 241 242 244 243 241 240 241
11 13 15 17 28 68 95 107 114 126 139 149 160 173 184 193 191 178 113 59 357 333 3 355 22 26 26 43 53 66 54 358 14 26 34 54 69 81 77 32 94 41 4 93 120 289 349 7 18 45 66 97 130 159 161 111 99 139 151 121 114 115 120 113 98 105 101 95 83 330 40 89 259 280 328 137 204 258 258 252 248 242 244 246 245 243 244 247
13 16 18 22 42 83 88 94 112 117 122 133 139 160 170 178 194 155 73 91 301 325 331 353 14 5 10 41 54 51 47 44 49 24 46 65 69 80 81 61 92 71 34 75 117 235 36 8 19 69 77 108 225 271 193 119 89 129 124 97 86 79 85 88 96 116 73 76 172 275 11 100 263 281 29 79 229 245 247 248 250 247 247 248 249 249 250 253
16 21 24 28 46 82 94 98 108 109 104 108 119 148 148 125 148 75 42 46 276 331 323 352 342 340 357 12 29 31 40 43 35 34 51 60 64 74 83 83 84 76 51 68 80 111 62 14 73 72 48 246 249 344 348 163 131 130 113 82 82 65 60 67 58 88 67 24 234 266 310 106 355 276 201 187 223 216 218 247 258 254 253 254 255 255 255 254
20 27 31 35 48 73 100 105 112 112 97 94 114 141 145 77 68 86 60 288 329 337 334 353 338 352 7 12 11 13 30 29 17 31 42 42 48 48 48 68 68 60 55 55 50 18 29 35 13 1 352 325 141 48 37 103 122 117 110 107 109 73 48 44 6 45 80 272 255 279 305 105 94 265 232 229 238 212 193 229 258 260 257 254 253 253 253 251
27 29 34 40 49 62 82 97 115 133 117 83 128 159 147 33 29 90 298 314 334 334 332 317 318 352 352 358 18 356 9 25 12 37 44 24 47 41 43 75 49 62 54 29 17 13 25 31 343 328 347 12 71 98 64 65 74 81 116 122 114 102 62 59 360 3 146 236 261 294 316 107 210 245 236 247 255 243 210 231 279 284 268 258 255 253 251 249
30 31 33 35 42 53 66 79 90 125 180 137 140 157 95 68 31 279 308 331 332 301 314 294 304 325 335 6 13 341 13 30 360 29 45 58 65 48 74 57 9 139 86 63 109 22 24 337 350 356 358 360 34 121 108 102 97 110 133 120 117 130 113 134 163 318 260 234 274 300 300 253 279 270 242 269 278 221 124 70 42 21 342 289 268 257 251 248
29 30 29 29 35 44 51 61 85 95 120 137 127 79 63 74 273 329 348 291 261 317 338 328 316 330 9 35 352 325 43 41 358 29 22 41 51 11 348 13 14 39 92 85 79 46 84 337 347 7 341 346 22 99 124 133 126 137 153 124 128 148 142 158 167 170 190 202 305 308 283 182 215 271 253 275 340 91 97 66 61 58 44 24 333 260 244 241
30 28 31 32 34 42 42 30 43 114 110 111 93 61 69 113 260 340 323 273 288 325 318 334 359 15 9 350 338 341 49 45 30 53 28 31 57 20 342 342 355 18 75 94 77 88 111 172 298 299 296 354 38 357 36 97 108 201 127 96 103 166 141 134 154 168 163 125 20 282 233 209 210 269 292 312 47 83 78 73 89 80 69 68 70 82 165 219
33 28 33 35 33 39 37 22 32 135 145 104 71 57 123 193 235 174 233 301 346 322 326 345 31 47 355 325 340 344 3 36 40 44 22 30 55 18 352 293 324 19 64 108 97 173 124 107 303 327 14 37 44 17 31 77 154 169 62 82 241 149 118 109 119 98 95 114 193 264 256 298 325 291 319 3 44 43 34 50 72 72 75 82 84 88 89 127
50 36 36 33 29 31 32 32 52 106 130 92 74 96 192 202 197 192 290 337 252 286 39 27 10 35 352 336 339 328 342 14 23 41 27 21 33 10 351 304 312 37 25 96 97 338 118 113 327 11 59 27 27 79 63 54 95 118 102 205 207 96 92 98 104 23 49 111 265 307 227 288 331 194 310 357 45 337 345 15 45 56 61 66 72 80 79 81
84 51 33 24 20 23 27 32 57 105 98 78 78 132 156 190 203 215 269 253 200 359 69 75 344 69 118 73 331 319 344 5 1 45 52 8 23 20 5 322 297 28 2 360 89 360 76 102 329 330 91 330 348 94 73 28 46 107 139 162 122 110 111 65 101 131 101 126 273 312 313 259 208 212 264 238 200 236 317 8 44 57 59 58 59 66 73 67
51 91 25 15 9 17 24 28 106 117 85 75 93 146 152 220 224 220 266 213 180 91 67 69 329 42 61 119 278 311 359 38 9 61 75 43 33 26 29 353 294 341 353 1 87 341 28 99 21 301 264 313 4 51 83 336 356 50 81 30 32 125 149 116 111 143 135 139 195 309 347 277 227 212 194 207 223 215 198 32 56 71 65 64 65 71 64 319
343 154 17 7 6 14 28 56 84 79 69 87 145 152 177 217 234 226 290 328 233 143 75 280 25 44 360 359 343 316 15 48 35 63 63 35 49 14 12 30 305 323 340 360 72 360 3 90 117 300 336 23 37 31 103 233 336 4 28 12 17 61 108 121 80 79 116 137 165 141 309 265 253 205 182 211 237 210 181 156 137 111 82 74 62 57 328 282
13 126 4 6 18 32 70 77 60 59 70 101 114 104 138 166 235 277 317 317 285 183 144 161 106 115 159 22 7 327 35 35 28 62 62 23 43 42 330 360 340 311 335 12 40 12 27 89 117 6 5 40 287 287 144 150 178 163 80 56 118 114 123 114 72 327 101 122 163 153 190 260 268 239 194 204 214 199 179 164 157 148 137 18 344 356 329 281
47 71 1 16 51 64 81 75 38 43 94 80 68 89 100 156 119 353 339 326 308 302 129 128 118 129 145 150 316 332 84 46 20 34 55 20 43 167 313 342 337 294 338 41 337 314 99 98 82 59 359 269 269 259 139 159 172 161 199 230 136 126 112 118 170 225 94 74 141 125 141 258 267 277 237 188 185 185 175 175 178 182 202 255 327 353 359 102
57 53 10 23 86 74 71 74 23 24 70 60 61 96 82 144 109 4 342 4 338 305 14 23 222 82 110 194 206 91 105 66 33 31 31 313 278 230 318 347 350 294 359 12 293 338 48 88 76 13 307 316 329 334 261 349 86 133 243 254 130 167 115 134 174 171 120 151 163 90 56 263 272 299 285 219 202 195 192 201 210 212 220 227 300 338 337 122
71 55 32 32 81 114 78 115 113 73 99 80 62 63 45 77 75 21 319 326 318 238 76 359 283 349 334 181 103 133 148 92 49 11 69 170 269 288 346 7 25 70 44 27 314 4 26 111 96 67 2 355 348 337 317 299 46 138 256 300 81 91 89 117 143 81 92 180 148 118 215 254 275 327 325 275 264 256 232 218 214 221 216 208 281 335 210 128
87 60 43 41 60 110 107 131 139 136 156 120 93 98 83 61 46 27 345 313 319 137 115 339 322 360 329 15 41 5 27 102 113 347 57 167 281 298 7 20 32 56 61 35 344 15 114 134 105 114 131 152 198 254 246 236 235 252 302 316 71 107 112 157 120 70 102 185 129 147 209 254 290 342 345 303 309 280 248 222 214 216 205 220 284 309 218 232
93 79 38 39 56 81 90 114 124 122 152 141 101 109 113 85 275 210 36 7 60 71 70 43 311 345 15 34 46 12 4 36 86 97 107 259 278 288 346 10 25 30 31 20 9 49 104 77 78 127 149 176 188 215 246 206 143 185 213 253 257 213 127 124 97 96 196 159 148 218 195 176 254 235 270 278 274 255 246 226 217 218 214 233 261 237 218 249
80 93 321 37 54 67 76 101 115 112 150 154 120 156 145 126 268 109 359 278 171 165 67 47 25 40 71 97 95 55 354 4 33 64 88 260 271 303 319 342 21 12 354 14 21 69 95 50 42 100 98 242 206 240 307 25 150 190 181 190 229 237 108 106 131 218 167 122 240 243 171 149 224 221 230 246 235 230 236 220 212 219 222 229 233 218 230 286
71 142 91 105 149 81 68 119 128 113 123 137 117 127 134 121 143 147 192 238 148 201 210 33 14 3 264 221 106 101 342 22 27 14 352 281 301 335 335 305 1 9 15 86 26 87 106 75 344 78 22 327 317 332 337 23 196 229 184 197 219 198 159 149 202 219 136 129 235 224 155 182 236 227 220 228 227 228 221 209 213 221 223 225 230 245 290 327
103 122 101 87 122 114 105 140 133 114 105 110 98 114 146 142 160 188 201 46 25 290 155 112 331 334 306 239 124 123 176 115 70 269 218 138 334 360 20 319 322 12 40 68 24 66 103 109 240 110 40 336 327 338 8 54 15 318 267 227 209 195 200 171 256 246 115 147 235 167 164 241 248 224 229 244 252 238 229 229 229 227 227 228 256 292 302 308
128 138 132 105 89 82 98 131 129 107 74 59 86 136 156 141 158 186 141 68 123 283 43 136 234 312 9 146 122 116 198 200 118 208 181 142 27 238 92 209 247 359 23 50 2 14 82 126 214 115 63 326 313 341 19 56 64 325 301 302 55 78 247 265 261 176 128 237 241 126 171 276 263 227 237 250 232 228 237 239 235 236 247 257 285 294 279 264
144 149 145 122 93 51 80 128 119 99 73 38 133 172 178 170 170 153 89 39 108 35 16 148 168 161 43 61 82 97 238 186 93 93 126 120 99 128 136 180 197 325 1 40 352 351 77 118 173 93 73 300 293 354 345 25 80 341 294 275 198 162 196 214 210 194 178 181 143 107 230 260 243 231 246 235 223 235 244 249 255 265 266 275 285 279 256 248
154 151 153 137 106 42 141 349 2 89 154 201 147 163 186 177 166 145 94 28 96 82 61 146 155 124 43 46 68 125 123 107 107 99 99 102 99 102 104 116 136 131 285 126 47 19 107 129 154 120 104 261 259 56 310 16 57 310 275 223 185 183 194 208 240 234 202 161 134 157 216 223 200 103 131 212 236 250 256 267 288 289 283 281 272 256 244 249